• In Russia
  • List of Countries
  • For 7 days
  • Water Temperature
  • Satellite Maps
  • Weather Map
  • Weather Widgets
  • user-avatar
    Login

    Hourly Weather Jaú

    Today, 17 August, Thursday

    Time Temperature Precipitation Wind Pressure Humidity
    00:00 +38°C° 0 mm 4 mps 750 mmHg 57%
    01:00 +38°C° 0 mm 4 mps 750 mmHg 59%
    02:00 +37°C° 0 mm 4 mps 750 mmHg 61%
    03:00 +37°C° 0 mm 5 mps 750 mmHg 65%
    04:00 +37°C° 0 mm 4 mps 750 mmHg 64%
    05:00 +37°C° 0 mm 4 mps 750 mmHg 64%
    06:00 +37°C° 0 mm 4 mps 750 mmHg 64%
    07:00 +38°C° 0 mm 3 mps 750 mmHg 56%
    08:00 +40°C° 0 mm 3 mps 750 mmHg 49%
    09:00 +41°C° 0 mm 2 mps 750 mmHg 42%
    10:00 +42°C° 0 mm 2 mps 750 mmHg 38%
    11:00 +43°C° 0 mm 2 mps 750 mmHg 34%
    12:00 +45°C° 0 mm 3 mps 750 mmHg 30%
    13:00 +45°C° 0 mm 3 mps 750 mmHg 31%
    14:00 +45°C° 0 mm 4 mps 749 mmHg 31%
    15:00 +46°C° 0 mm 5 mps 749 mmHg 32%
    16:00 +45°C° 0 mm 5 mps 749 mmHg 37%
    17:00 +43°C° 0 mm 5 mps 748 mmHg 41%
    18:00 +42°C° 0 mm 4 mps 748 mmHg 46%
    19:00 +41°C° 0 mm 4 mps 749 mmHg 47%
    20:00 +41°C° 0 mm 4 mps 749 mmHg 49%
    21:00 +39°C° 0 mm 3 mps 749 mmHg 50%
    22:00 +39°C° 0 mm 3 mps 749 mmHg 53%
    23:00 +38°C° 0 mm 4 mps 749 mmHg 56%

    Tomorrow, 18 August, Friday

    Time Temperature Precipitation Wind Pressure Humidity
    00:00 +38°C° 0 mm 4 mps 749 mmHg 59%
    01:00 +37°C° 0 mm 4 mps 749 mmHg 59%
    02:00 +37°C° 0 mm 3 mps 749 mmHg 60%
    03:00 +37°C° 0 mm 3 mps 748 mmHg 60%
    04:00 +37°C° 0 mm 2 mps 749 mmHg 58%
    05:00 +37°C° 0 mm 2 mps 749 mmHg 57%
    06:00 +36°C° 0 mm 1 mps 750 mmHg 55%
    07:00 +37°C° 0 mm 1 mps 750 mmHg 49%
    08:00 +40°C° 0 mm 1 mps 750 mmHg 44%
    09:00 +41°C° 0 mm 2 mps 750 mmHg 38%
    10:00 +42°C° 0 mm 2 mps 750 mmHg 35%
    11:00 +43°C° 0 mm 2 mps 750 mmHg 32%
    12:00 +45°C° 0 mm 2 mps 750 mmHg 29%
    13:00 +45°C° 0 mm 3 mps 749 mmHg 28%
    14:00 +45°C° 0 mm 4 mps 749 mmHg 28%
    15:00 +47°C° 0 mm 5 mps 748 mmHg 27%
    16:00 +45°C° 0 mm 5 mps 748 mmHg 33%
    17:00 +43°C° 0 mm 5 mps 748 mmHg 39%
    18:00 +41°C° 0 mm 5 mps 748 mmHg 45%
    19:00 +41°C° 0 mm 4 mps 749 mmHg 47%
    20:00 +40°C° 0 mm 4 mps 749 mmHg 48%
    21:00 +39°C° 0 mm 3 mps 749 mmHg 50%
    22:00 +38°C° 0 mm 2 mps 749 mmHg 50%
    23:00 +38°C° 0 mm 2 mps 749 mmHg 51%

    Day after tomorrow, 19 August, Saturday

    Time Temperature Precipitation Wind Pressure Humidity
    00:00 +36°C° 0 mm 1 mps 749 mmHg 51%
    01:00 +36°C° 0 mm 1 mps 748 mmHg 52%
    02:00 +35°C° 0 mm 1 mps 748 mmHg 53%
    03:00 +35°C° 0 mm 1 mps 748 mmHg 53%
    04:00 +35°C° 0 mm 1 mps 748 mmHg 52%
    05:00 +35°C° 0 mm 1 mps 749 mmHg 51%
    06:00 +35°C° 0 mm 1 mps 749 mmHg 49%
    07:00 +38°C° 0 mm 2 mps 749 mmHg 45%
    08:00 +39°C° 0 mm 2 mps 750 mmHg 41%
    09:00 +42°C° 0 mm 3 mps 750 mmHg 36%
    10:00 +42°C° 0 mm 2 mps 750 mmHg 33%
    11:00 +43°C° 0 mm 2 mps 750 mmHg 30%
    12:00 +46°C° 0 mm 2 mps 749 mmHg 27%
    13:00 +46°C° 0 mm 3 mps 749 mmHg 26%
    14:00 +47°C° 0 mm 4 mps 749 mmHg 26%
    15:00 +47°C° 0 mm 5 mps 748 mmHg 26%
    16:00 +45°C° 0 mm 4 mps 748 mmHg 29%
    17:00 +44°C° 0 mm 4 mps 748 mmHg 32%
    18:00 +42°C° 0 mm 4 mps 748 mmHg 36%
    19:00 +42°C° 0 mm 3 mps 748 mmHg 37%
    20:00 +40°C° 0 mm 3 mps 749 mmHg 38%
    21:00 +40°C° 0 mm 2 mps 749 mmHg 40%
    22:00 +39°C° 0 mm 2 mps 749 mmHg 41%
    23:00 +39°C° 0 mm 3 mps 749 mmHg 42%

    20 August, Sunday

    Time Temperature Precipitation Wind Pressure Humidity
    00:00 +38°C° 0 mm 3 mps 748 mmHg 43%
    01:00 +38°C° 0 mm 3 mps 748 mmHg 46%
    02:00 +37°C° 0 mm 2 mps 748 mmHg 50%
    03:00 +37°C° 0 mm 2 mps 748 mmHg 53%
    04:00 +37°C° 0 mm 2 mps 748 mmHg 52%
    05:00 +37°C° 0 mm 2 mps 749 mmHg 51%
    06:00 +37°C° 0 mm 2 mps 749 mmHg 50%
    07:00 +37°C° 0 mm 1 mps 749 mmHg 46%
    08:00 +40°C° 0 mm 1 mps 750 mmHg 41%
    09:00 +41°C° 0 mm 1 mps 750 mmHg 37%
    10:00 +42°C° 0 mm 1 mps 750 mmHg 35%
    11:00 +43°C° 0 mm 1 mps 749 mmHg 33%
    12:00 +45°C° 0 mm 2 mps 749 mmHg 31%
    13:00 +45°C° 0 mm 3 mps 749 mmHg 30%
    14:00 +45°C° 0 mm 3 mps 748 mmHg 30%
    15:00 +47°C° 0 mm 4 mps 748 mmHg 29%
    16:00 +45°C° 0 mm 4 mps 748 mmHg 32%
    17:00 +44°C° 0 mm 4 mps 748 mmHg 35%
    18:00 +43°C° 0 mm 4 mps 748 mmHg 38%
    19:00 +43°C° 0 mm 4 mps 748 mmHg 38%
    20:00 +42°C° 0 mm 4 mps 748 mmHg 38%
    21:00 +42°C° 0 mm 4 mps 749 mmHg 38%
    22:00 +41°C° 0 mm 4 mps 749 mmHg 37%
    23:00 +41°C° 0 mm 4 mps 748 mmHg 36%

    21 August, Monday

    Time Temperature Precipitation Wind Pressure Humidity
    00:00 +40°C° 0 mm 4 mps 748 mmHg 36%
    01:00 +39°C° 0 mm 3 mps 748 mmHg 39%
    02:00 +38°C° 0 mm 3 mps 748 mmHg 42%
    03:00 +37°C° 0 mm 3 mps 748 mmHg 45%
    04:00 +37°C° 0 mm 3 mps 748 mmHg 47%
    05:00 +37°C° 0 mm 3 mps 748 mmHg 49%
    06:00 +37°C° 0 mm 3 mps 749 mmHg 50%
    07:00 +39°C° 0 mm 3 mps 749 mmHg 45%
    08:00 +40°C° 0 mm 3 mps 749 mmHg 40%
    09:00 +43°C° 0 mm 3 mps 749 mmHg 34%
    10:00 +43°C° 0 mm 2 mps 749 mmHg 31%
    11:00 +45°C° 0 mm 2 mps 749 mmHg 28%
    12:00 +46°C° 0 mm 2 mps 748 mmHg 24%
    13:00 +46°C° 0 mm 3 mps 748 mmHg 23%
    14:00 +48°C° 0 mm 4 mps 747 mmHg 22%
    15:00 +48°C° 0 mm 5 mps 747 mmHg 21%
    16:00 +47°C° 0 mm 5 mps 747 mmHg 23%
    17:00 +46°C° 0 mm 5 mps 747 mmHg 25%
    18:00 +45°C° 0 mm 5 mps 747 mmHg 28%
    19:00 +43°C° 0 mm 5 mps 747 mmHg 29%
    20:00 +42°C° 0 mm 4 mps 748 mmHg 31%
    21:00 +42°C° 0 mm 4 mps 748 mmHg 32%
    22:00 +41°C° 0 mm 4 mps 748 mmHg 32%
    23:00 +40°C° 0 mm 3 mps 747 mmHg 32%

    22 August, Tuesday

    Time Temperature Precipitation Wind Pressure Humidity
    00:00 +39°C° 0 mm 3 mps 747 mmHg 32%
    01:00 +39°C° 0 mm 3 mps 747 mmHg 33%
    02:00 +38°C° 0 mm 3 mps 747 mmHg 34%
    03:00 +38°C° 0 mm 3 mps 747 mmHg 35%
    04:00 +38°C° 0 mm 3 mps 747 mmHg 36%
    05:00 +38°C° 0 mm 3 mps 747 mmHg 36%
    06:00 +38°C° 0 mm 3 mps 748 mmHg 37%
    07:00 +39°C° 0 mm 3 mps 748 mmHg 33%
    08:00 +42°C° 0 mm 3 mps 748 mmHg 30%
    09:00 +43°C° 0 mm 3 mps 749 mmHg 26%
    10:00 +44°C° 0 mm 3 mps 748 mmHg 24%
    11:00 +45°C° 0 mm 2 mps 748 mmHg 22%
    12:00 +45°C° 0 mm 1 mps 747 mmHg 20%
    13:00 +46°C° 0 mm 3 mps 747 mmHg 20%
    14:00 +47°C° 0 mm 4 mps 747 mmHg 20%
    15:00 +48°C° 0 mm 5 mps 746 mmHg 20%
    16:00 +46°C° 0 mm 5 mps 746 mmHg 23%
    17:00 +45°C° 0 mm 5 mps 746 mmHg 25%
    18:00 +44°C° 0 mm 6 mps 746 mmHg 28%
    19:00 +43°C° 0 mm 5 mps 747 mmHg 29%
    20:00 +42°C° 0 mm 5 mps 747 mmHg 31%
    21:00 +41°C° 0 mm 5 mps 747 mmHg 32%
    22:00 +41°C° 0 mm 4 mps 747 mmHg 32%
    23:00 +40°C° 0 mm 4 mps 747 mmHg 32%
    Show more